SR5NLK-1 Weather Reports


time (UTC)temp
F
wind
direction
speed
knots
gust
knots
rain 1hr
in
rain 24hr
in
rain mn
in
humidity
%
barometer
mb
20260904013440 61 157 5.2 7.8 0.00 0.02 0.00 81 1077.0
20260904012940 61 225 5.2 6.1 0.00 0.02 0.00 81 1086.2
20260904012439 61 202 0.9 6.1 0.00 0.02 0.00 81 1056.4
20260904011940 61 157 1.7 6.1 0.00 0.02 0.00 80 1055.9
20260904011440 61 180 2.6 5.2 0.00 0.02 0.00 80 1085.5
20260904010940 61 180 3.5 6.1 0.00 0.02 0.00 80 1072.1
20260904010440 61 157 5.2 7.8 0.00 0.02 0.00 80 1073.7
20260904005940 61 202 1.7 6.1 0.00 0.02 0.00 80 1068.9
20260904005441 61 180 5.2 7.0 0.00 0.02 0.00 80 1059.5
20260904005139 61 135 4.3 7.0 0.00 0.02 0.00 80 1059.5
20260904004940 61 157 4.3 7.0 0.00 0.02 0.00 80 1010.1
20260904004440 61 157 4.3 5.2 0.00 0.02 0.00 79 1057.9
20260904003941 62 180 0.0 4.3 0.00 0.02 0.00 79 1039.7
20260904003440 62 202 4.3 6.1 0.00 0.02 0.00 79 1020.9
20260904002940 62 202 2.6 4.3 0.00 0.02 0.00 79 1049.7
20260904002441 62 225 3.5 6.1 0.00 0.02 0.00 79 1073.3
20260904001940 62 157 2.6 6.1 0.00 0.02 0.00 79 1054.8
20260904001839 62 157 6.1 6.1 0.00 0.02 0.00 79 1061.1
20260904001440 62 157 3.5 4.3 0.00 0.02 0.00 79 1028.7
20260904000940 62 157 2.6 4.3 0.00 0.02 0.00 79 1070.5
20260904000440 62 112 2.6 5.2 0.00 0.02 0.00 78 1070.2
20260903235940 62 157 2.6 7.0 0.00 0.02 0.00 78 1056.4
20260903235441 62 180 0.9 3.5 0.00 0.02 0.00 78 1071.7
20260903234941 63 157 1.7 5.2 0.02 0.02 0.00 78 1050.1
20260903234540 63 180 0.9 3.5 0.02 0.02 0.00 78 1084.7
20260903234441 63 157 2.6 3.5 0.02 0.02 0.00 78 1070.5
20260903233941 63 157 3.5 5.2 0.02 0.02 0.00 77 1075.2
20260903233440 63 157 5.2 5.2 0.02 0.02 0.00 77 1072.1
20260903232940 63 157 2.6 4.3 0.02 0.02 0.00 77 1030.3
20260903232441 63 157 2.6 5.2 0.02 0.02 0.00 76 1067.4
20260903231940 63 157 3.5 5.2 0.02 0.02 0.00 75 1090.9
20260903231441 63 157 1.7 4.3 0.02 0.02 0.00 74 1062.7
20260903231240 63 157 4.3 6.1 0.02 0.02 0.00 74 1062.7
20260903230941 64 157 3.5 6.1 0.02 0.02 0.00 73 1053.2
20260903230441 64 157 6.1 7.0 0.02 0.02 0.00 72 1035.0
20260903225941 64 180 5.2 7.8 0.02 0.02 0.00 71 985.4
20260903225441 65 180 5.2 7.8 0.00 0.00 0.00 71 1062.7
20260903224941 65 202 7.0 10.4 0.00 0.00 0.00 70 1016.2
20260903224441 65 202 7.8 8.7 0.00 0.00 0.00 70 1019.3
20260903223940 65 202 8.7 8.7 0.00 0.00 0.00 70 1026.6
20260903223441 65 202 4.3 9.6 0.00 0.00 0.00 70 1086.2
20260903222941 65 225 4.3 5.2 0.00 0.00 0.00 70 1050.1
20260903222441 65 202 2.6 7.0 0.00 0.00 0.00 71 1028.8
20260903221941 65 157 2.6 2.6 0.00 0.00 0.00 71 1058.0
20260903221441 65 225 0.9 2.6 0.00 0.00 0.00 71 1017.7
20260903220941 65 157 0.9 4.3 0.00 0.00 0.00 70 1021.8
20260903220640 65 202 4.3 5.2 0.00 0.00 0.00 71 1075.2
20260903220441 65 180 2.6 5.2 0.00 0.00 0.00 70 1078.4
20260903215941 65 202 1.7 5.2 0.00 0.00 0.00 70 993.3
20260903215441 65 225 2.6 4.3 0.00 0.00 0.00 70 1088.9
20260903214941 65 180 3.5 5.2 0.00 0.00 0.00 70 1067.4
20260903214441 65 180 3.5 6.1 0.00 0.00 0.00 69 1067.4
20260903213941 66 135 2.6 4.3 0.00 0.00 0.00 69 1065.8
20260903213441 66 202 2.6 4.3 0.00 0.00 0.00 69 1065.5
20260903213340 66 202 1.7 4.3 0.00 0.00 0.00 69 1029.4
20260903212941 66 225 2.6 7.0 0.00 0.00 0.00 69 1017.8
20260903212441 65 202 2.6 5.2 0.00 0.00 0.00 69 1031.2
20260903211941 65 202 1.7 6.1 0.00 0.00 0.00 69 1065.8
20260903211441 65 180 1.7 7.0 0.00 0.00 0.00 69 1053.2
20260903210941 65 180 3.5 3.5 0.00 0.00 0.00 69 1065.8
20260903210441 66 157 1.7 7.0 0.00 0.00 0.00 68 1062.7
20260903210040 66 202 1.7 5.2 0.00 0.00 0.00 68 1050.1
20260903205941 66 157 1.7 5.2 0.00 0.00 0.00 68 1013.0
20260903205441 66 157 2.6 4.3 0.00 0.00 0.00 68 1052.9
20260903204941 66 157 3.5 4.3 0.00 0.00 0.00 68 1056.4
20260903204441 66 202 3.5 4.3 0.00 0.00 0.00 68 1073.7
20260903203941 66 180 1.7 4.3 0.00 0.00 0.00 68 1033.5
20260903203441 66 180 3.5 4.3 0.00 0.00 0.00 68 1081.5
20260903202941 66 157 1.7 3.5 0.00 0.00 0.00 68 1091.0
20260903202740 66 180 1.7 3.5 0.00 0.00 0.00 68 1050.1
20260903202441 66 202 2.6 4.3 0.00 0.00 0.00 68 1067.4
20260903201941 66 225 4.3 4.3 0.00 0.00 0.00 68 1070.5
20260903201441 66 202 2.6 3.5 0.00 0.00 0.00 68 1067.5
20260903200941 66 157 0.0 4.3 0.00 0.00 0.00 68 1027.2
20260903200441 66 180 1.7 4.3 0.00 0.00 0.00 67 1077.8
20260903195440 66 202 2.6 5.2 0.00 0.00 0.00 67 1059.5
20260903194941 66 180 1.7 4.3 0.00 0.00 0.00 67 1087.8
20260903194441 66 157 1.7 4.3 0.00 0.00 0.00 66 1086.3
20260903193941 66 180 3.5 4.3 0.00 0.00 0.00 66 1065.8
20260903193441 66 180 1.7 4.3 0.00 0.00 0.00 66 1069.0
20260903192941 66 180 2.6 3.5 0.00 0.00 0.00 66 1059.5
20260903192441 67 157 0.9 4.3 0.00 0.00 0.00 65 1078.4
20260903192140 67 157 1.7 4.3 0.00 0.00 0.00 65 1042.9
20260903191941 67 180 0.9 2.6 0.00 0.00 0.00 65 982.3
20260903191441 67 202 1.7 4.3 0.00 0.00 0.00 65 1048.7
20260903190941 67 180 3.5 4.3 0.00 0.00 0.00 65 1015.4
20260903190441 67 180 2.6 3.5 0.00 0.00 0.00 64 1059.5
20260903185941 67 180 0.9 2.6 0.00 0.00 0.00 64 1068.8
20260903185441 67 157 1.7 3.5 0.00 0.00 0.00 63 1079.6
20260903184941 67 180 0.9 3.5 0.00 0.00 0.00 63 1027.2
20260903184840 67 202 0.9 3.5 0.00 0.00 0.00 63 1086.3
20260903184441 67 157 2.6 4.3 0.00 0.00 0.00 63 1022.5
20260903183941 67 157 1.7 3.5 0.00 0.00 0.00 63 1065.8
20260903183441 68 157 1.7 4.3 0.00 0.00 0.00 63 1072.1
20260903182941 68 202 3.5 4.3 0.00 0.00 0.00 62 1087.5
20260903182441 68 180 0.0 3.5 0.00 0.00 0.00 62 1036.6
20260903181942 68 202 1.7 5.2 0.00 0.00 0.00 61 1092.5
20260903181540 68 180 1.7 4.3 0.00 0.00 0.00 61 1065.8
20260903181441 68 202 1.7 6.1 0.00 0.00 0.00 61 1083.1
20260903180941 68 202 3.5 7.8 0.00 0.00 0.00 61 1067.4
20260903180441 68 247 3.5 5.2 0.00 0.00 0.00 61 1053.2
20260903175941 68 202 4.3 7.0 0.00 0.00 0.00 61 1064.2
20260903175441 68 202 5.2 6.1 0.00 0.00 0.00 61 1065.8
20260903174941 68 180 5.2 7.0 0.00 0.00 0.00 60 1012.7
20260903174441 68 225 3.5 3.5 0.00 0.00 0.00 60 1022.5
20260903174240 68 225 2.6 3.5 0.00 0.00 0.00 60 987.0
20260903173942 68 202 2.6 2.6 0.00 0.00 0.00 60 1079.9
20260903173441 68 180 1.7 2.6 0.00 0.00 0.00 59 1035.0
20260903172941 68 225 1.7 2.6 0.00 0.00 0.00 59 1076.8
20260903172441 69 157 0.9 1.7 0.00 0.00 0.00 58 1054.7
20260903171941 69 157 0.9 1.7 0.00 0.00 0.00 58 1081.5
20260903171441 69 202 0.9 1.7 0.00 0.00 0.00 57 1055.5
20260903170940 70 202 1.7 1.7 0.00 0.00 0.00 57 1025.6
20260903170441 70 180 1.7 1.7 0.00 0.00 0.00 56 1046.9
20260903165941 70 180 0.9 1.7 0.00 0.00 0.00 56 1073.7
20260903165441 71 202 1.7 2.6 0.00 0.00 0.00 55 1078.4
20260903164941 71 180 0.9 2.6 0.00 0.00 0.00 55 1025.6
20260903164441 71 225 2.6 2.6 0.00 0.00 0.00 54 1083.7
20260903163941 71 225 1.7 3.5 0.00 0.00 0.00 54 1022.1
20260903163640 72 225 1.7 3.5 0.00 0.00 0.00 53 1080.0
20260903163441 72 225 1.7 3.5 0.00 0.00 0.00 53 1091.1
20260903162941 72 225 0.9 4.3 0.00 0.00 0.00 52 1014.6
20260903162441 73 225 1.7 5.2 0.00 0.00 0.00 52 1076.8
20260903161941 73 270 2.6 5.2 0.00 0.00 0.00 51 1058.0
20260903161441 74 202 1.7 7.0 0.00 0.00 0.00 51 1031.1
20260903160941 74 247 2.6 7.0 0.00 0.00 0.00 50 1025.6
20260903160441 74 270 3.5 6.1 0.00 0.00 0.00 50 1067.3
20260903160340 74 270 1.7 6.1 0.00 0.00 0.00 50 1090.9
20260903155941 75 247 1.7 6.1 0.00 0.00 0.00 49 1033.4
20260903155441 75 225 3.5 7.0 0.00 0.00 0.00 49 1073.8
20260903154941 75 225 1.7 6.1 0.00 0.00 0.00 49 1071.5
20260903154441 75 225 2.6 4.3 0.00 0.00 0.00 49 1075.3
20260903153941 75 225 6.1 7.0 0.00 0.00 0.00 48 1034.3
20260903153441 75 202 2.6 12.2 0.00 0.00 0.00 48 1007.5
20260903153040 75 270 5.2 7.8 0.00 0.00 0.00 48 1043.8
20260903152941 75 270 5.2 7.8 0.00 0.00 0.00 48 1068.9
20260903152441 76 247 7.8 8.7 0.00 0.00 0.00 48 1040.4
20260903151942 76 202 1.7 5.2 0.00 0.00 0.00 47 1025.3
20260903151441 76 202 5.2 7.0 0.00 0.00 0.00 47 1036.6
20260903150941 76 225 5.2 5.2 0.00 0.00 0.00 47 1070.2
20260903150441 77 225 1.7 9.6 0.00 0.00 0.00 46 1067.4
20260903145942 77 202 3.5 7.8 0.00 0.00 0.00 46 1022.7
20260903145740 77 225 4.3 7.8 0.00 0.00 0.00 46 1059.2
20260903145442 77 270 6.1 7.0 0.00 0.00 0.00 46 1062.6
20260903144941 77 202 4.3 6.1 0.00 0.00 0.00 46 1081.5
20260903144442 77 202 2.6 9.6 0.00 0.00 0.00 46 1038.6
20260903143942 77 225 7.8 9.6 0.00 0.00 0.00 46 1059.1
20260903143441 77 247 7.8 8.7 0.00 0.00 0.00 47 1079.2
20260903142941 76 247 7.8 8.7 0.00 0.00 0.00 47 1056.3
20260903142441 76 202 4.3 8.7 0.00 0.00 0.00 47 1032.5
20260903141941 76 292 5.2 10.4 0.00 0.00 0.00 47 1073.7
20260903141442 76 270 0.9 7.8 0.00 0.00 0.00 47 1066.5
20260903140941 76 270 3.5 6.1 0.00 0.00 0.00 47 1059.5
20260903140442 76 270 2.6 8.7 0.00 0.00 0.00 47 1056.4
20260903135942 76 270 2.6 3.5 0.00 0.00 0.00 47 1081.3
20260903135441 76 270 3.5 7.0 0.00 0.00 0.00 46 1057.4
20260903135141 76 270 6.1 10.4 0.00 0.00 0.00 46 1037.5
20260903134942 76 225 2.6 10.4 0.00 0.00 0.00 46 1071.3
20260903134442 76 247 2.6 6.1 0.00 0.00 0.00 46 1071.7
20260903133942 77 292 4.3 8.7 0.00 0.00 0.00 45 1020.2
20260903133442 77 270 8.7 12.2 0.00 0.00 0.00 44 1061.3
20260903132942 78 270 6.1 11.3 0.00 0.00 0.00 44 1053.2
20260903132442 79 225 2.6 6.1 0.00 0.00 0.00 43 1016.3
20260903131942 78 225 2.6 5.2 0.00 0.00 0.00 44 1078.0
20260903131841 78 225 4.3 8.7 0.00 0.00 0.00 44 1067.7
20260903131442 78 225 3.5 8.7 0.00 0.00 0.00 44 1065.4
20260903130942 78 270 3.5 9.6 0.00 0.00 0.00 43 1046.3
20260903130442 78 292 8.7 10.4 0.00 0.00 0.00 43 1037.5
20260903125942 78 270 7.0 12.2 0.00 0.00 0.00 43 1022.8
20260903125442 79 180 3.5 11.3 0.00 0.00 0.00 43 1053.2
20260903124942 79 292 9.6 11.3 0.00 0.00 0.00 42 1067.6
20260903124541 79 292 3.5 7.8 0.00 0.00 0.00 42 1046.9
20260903124442 79 247 4.3 7.8 0.00 0.00 0.00 42 1030.7
20260903123942 79 247 1.7 8.7 0.00 0.00 0.00 43 1010.5
20260903123442 78 247 8.7 8.7 0.00 0.00 0.00 43 1053.5
20260903122942 78 270 7.0 10.4 0.00 0.00 0.00 43 1043.8
20260903122442 78 270 8.7 8.7 0.00 0.00 0.00 43 1046.9
20260903121942 78 202 3.5 8.7 0.00 0.00 0.00 43 1021.7
20260903121442 78 292 5.2 7.0 0.00 0.00 0.00 43 1031.2
20260903121241 78 270 2.6 9.6 0.00 0.00 0.00 43 1053.2
20260903120942 79 247 2.6 9.6 0.00 0.00 0.00 43 1050.1
20260903120442 78 292 5.2 11.3 0.00 0.00 0.00 44 1040.6
20260903114942 78 247 3.5 8.7 0.00 0.00 0.00 43 1062.7
20260903114442 78 270 5.2 9.6 0.00 0.00 0.00 43 1059.5
20260903113941 78 247 7.0 9.6 0.00 0.00 0.00 43 1040.6
20260903113442 78 270 1.7 7.8 0.00 0.00 0.00 44 1043.8
20260903112942 78 270 5.2 11.3 0.00 0.00 0.00 43 1050.1
20260903112442 78 22 3.5 10.4 0.00 0.00 0.00 43 1037.5
20260903111942 78 292 3.5 9.6 0.00 0.00 0.00 43 1034.3
20260903111442 78 247 8.7 8.7 0.00 0.00 0.00 43 1037.4
20260903110942 78 270 4.3 8.7 0.00 0.00 0.00 43 1031.1
20260903110641 78 202 3.5 11.3 0.00 0.00 0.00 43 1043.7
20260903110442 78 270 2.6 11.3 0.00 0.00 0.00 43 1043.8
20260903105942 78 22 3.5 9.6 0.00 0.00 0.00 43 1034.3
20260903105442 78 292 5.2 13.9 0.00 0.00 0.00 43 1062.7
20260903104942 77 270 8.7 13.9 0.00 0.00 0.00 44 1024.8
20260903104442 77 247 5.2 12.2 0.00 0.00 0.00 44 1046.9
20260903103942 76 247 6.1 11.3 0.00 0.00 0.00 44 1031.1
20260903103442 77 315 8.7 10.4 0.00 0.00 0.00 43 1037.5
20260903103341 77 270 3.5 10.4 0.00 0.00 0.00 43 1050.1
20260903102942 78 270 9.6 12.2 0.00 0.00 0.00 43 1018.5
20260903102442 78 292 7.8 14.8 0.00 0.00 0.00 42 1037.5
20260903101942 78 270 4.3 11.3 0.00 0.00 0.00 44 1046.9
20260903101442 78 270 4.3 16.5 0.00 0.00 0.00 44 1040.6
20260903100942 78 270 3.5 13.9 0.00 0.00 0.00 44 1034.3
20260903100442 78 270 7.8 12.2 0.00 0.00 0.00 44 1031.1
20260903100041 77 225 6.1 8.7 0.00 0.00 0.00 46 1034.3
20260903095942 76 202 8.7 8.7 0.00 0.00 0.00 46 1031.1
20260903095442 75 270 10.4 12.2 0.00 0.00 0.00 46 1040.6
20260903094942 75 292 3.5 10.4 0.00 0.00 0.00 45 1031.2
20260903094442 75 225 3.5 13.0 0.00 0.00 0.00 46 1037.5
20260903093942 75 225 2.6 9.6 0.00 0.00 0.00 46 1018.5
20260903093442 76 292 3.5 10.4 0.00 0.00 0.00 43 1021.7
20260903092942 77 247 3.5 13.0 0.00 0.00 0.00 45 1021.7
20260903092741 77 270 5.2 7.8 0.00 0.00 0.00 44 1028.0
20260903092442 78 292 2.6 9.6 0.00 0.00 0.00 44 1028.0
20260903091942 78 270 2.6 10.4 0.00 0.00 0.00 45 1018.3
20260903091442 78 225 6.1 9.6 0.00 0.00 0.00 45 1043.8
20260903090943 77 270 8.7 8.7 0.00 0.00 0.00 45 1037.5
20260903090442 77 247 5.2 7.0 0.00 0.00 0.00 44 1024.8
20260903085948 77 247 1.7 7.0 0.00 0.00 0.00 45 1034.3
20260903085942 77 247 1.7 7.0 0.00 0.00 0.00 45 1034.3
20260903085441 78 225 1.7 11.3 0.00 0.00 0.00 45 1037.5
20260903084942 78 247 7.0 7.8 0.00 0.00 0.00 45 1028.0
20260903084442 78 225 1.7 6.1 0.00 0.00 0.00 45 1021.6
20260903083942 80 247 1.7 5.2 0.00 0.00 0.00 43 1034.3
20260903083442 82 292 3.5 10.4 0.00 0.00 0.00 42 1050.1
20260903082942 84 270 5.2 5.2 0.00 0.00 0.00 43 1031.1
20260903082442 84 292 3.5 5.2 0.00 0.00 0.00 42 1043.8
20260903082141 85 270 1.7 7.0 0.00 0.00 0.00 41 1031.1
20260903081942 86 315 2.6 7.0 0.00 0.00 0.00 41 1043.8
20260903081442 87 247 2.6 5.2 0.00 0.00 0.00 42 1031.1
20260903080942 88 270 1.7 4.3 0.00 0.00 0.00 40 1053.2
20260903080442 88 225 1.7 2.6 0.00 0.00 0.00 41 1046.9
20260903075942 88 270 0.0 4.3 0.00 0.00 0.00 42 1050.1
20260903075442 88 180 2.6 3.5 0.00 0.00 0.00 43 1018.5
20260903074942 87 90 1.7 4.3 0.00 0.00 0.00 44 1034.3
20260903074841 87 135 0.9 4.3 0.00 0.00 0.00 44 1031.2
20260903074442 86 202 1.7 5.2 0.00 0.00 0.00 44 1059.5
20260903073942 86 225 3.5 5.2 0.00 0.00 0.00 45 1028.0
20260903073442 86 180 1.7 5.2 0.00 0.00 0.00 44 1040.6
20260903072942 87 202 1.7 5.2 0.00 0.00 0.00 44 1031.1
20260903072442 87 202 3.5 5.2 0.00 0.00 0.00 44 1037.5
20260903071942 87 180 2.6 4.3 0.00 0.00 0.00 45 1034.3
20260903071541 87 270 2.6 3.5 0.00 0.00 0.00 44 1043.8
20260903071442 87 270 0.9 3.5 0.00 0.00 0.00 45 1043.8
20260903070942 87 270 1.7 2.6 0.00 0.00 0.00 47 1040.6
20260903070442 85 247 0.0 2.6 0.00 0.00 0.00 50 1050.0
20260903065442 80 202 1.7 2.6 0.00 0.00 0.00 55 1043.7
20260903064942 77 202 1.7 1.7 0.00 0.00 0.00 57 1053.2
20260903064241 77 225 2.6 2.6 0.00 0.00 0.00 55 1021.7
20260903063942 77 270 1.7 4.3 0.00 0.00 0.00 55 1065.8
20260903063442 78 22 0.9 23.5 0.00 0.00 0.00 54 1040.6
20260903062942 79 270 0.0 3.5 0.00 0.00 0.00 53 1062.7
20260903062442 82 225 3.5 4.3 0.00 0.00 0.00 52 1043.8
20260903061942 82 270 3.5 3.5 0.00 0.00 0.00 55 1023.4
20260903061442 81 157 0.0 2.6 0.00 0.00 0.00 58 1065.2
20260903060941 79 292 0.0 3.5 0.00 0.00 0.00 63 1067.4
20260903060442 75 247 0.9 1.7 0.00 0.00 0.00 70 1049.4
20260903055942 71 247 0.0 2.6 0.00 0.00 0.00 75 1082.3
20260903055442 69 247 1.7 1.7 0.00 0.00 0.00 76 1046.9
20260903054942 68 202 0.9 3.5 0.00 0.00 0.00 76 1058.1
20260903054442 68 135 0.0 0.9 0.00 0.00 0.00 79 1063.7
20260903053942 67 157 0.9 1.7 0.00 0.00 0.00 82 1011.3
20260903053641 66 225 0.0 1.7 0.00 0.00 0.00 82 1063.3
20260903053442 65 202 1.7 2.6 0.00 0.00 0.00 82 1063.2
20260903052943 64 202 2.6 3.5 0.00 0.00 0.00 83 1044.7
20260903052442 64 135 1.7 3.5 0.00 0.00 0.00 83 1035.3
20260903051942 63 202 0.9 2.6 0.00 0.00 0.00 84 1053.2
20260903051442 63 225 0.0 1.7 0.00 0.00 0.00 84 1078.4
20260903050942 63 180 0.0 1.7 0.00 0.00 0.00 86 1072.9
20260903050442 62 135 0.9 1.7 0.00 0.00 0.00 87 1057.1
20260903050341 62 135 0.9 1.7 0.00 0.00 0.00 87 1083.1
20260903045942 61 112 0.0 0.0 0.00 0.00 0.00 86 1089.1
20260903045442 60 157 0.0 0.0 0.00 0.00 0.00 85 1075.7
20260903044942 60 135 0.0 0.0 0.00 0.00 0.00 85 993.9
20260903044442 59 157 0.0 0.0 0.00 0.00 0.00 85 1078.4
20260903043943 59 112 0.0 1.7 0.00 0.00 0.00 85 1034.3
20260903043442 59 135 0.0 0.0 0.00 0.00 0.00 85 1028.0
20260903043042 58 157 0.0 0.0 0.00 0.00 0.00 85 1029.4
20260903042943 58 157 0.0 0.0 0.00 0.00 0.00 85 1047.9
20260903042442 58 67 0.0 0.0 0.00 0.00 0.00 84 1053.2
20260903041942 58 67 0.0 0.0 0.00 0.00 0.00 84 1050.5
20260903041443 58 112 0.0 0.0 0.00 0.00 0.00 84 1062.7
20260903040943 58 67 0.0 0.0 0.00 0.00 0.00 85 1053.3
20260903040443 58 67 0.0 0.0 0.00 0.00 0.00 85 1034.3
20260903035943 58 337 0.0 0.0 0.00 0.00 0.00 85 1053.2
20260903035742 58 337 0.0 0.0 0.00 0.00 0.00 85 1059.5
20260903035443 58 0 0.0 0.0 0.00 0.00 0.00 85 1068.1
20260903034943 58 157 0.0 1.7 0.00 0.00 0.00 85 1043.8
20260903034443 58 135 1.7 1.7 0.00 0.00 0.00 85 1046.9
20260903033943 58 157 0.9 1.7 0.00 0.00 0.00 85 1050.1
20260903033443 58 135 0.9 1.7 0.00 0.00 0.00 85 1043.8
20260903032943 58 270 0.9 1.7 0.00 0.00 0.00 85 1043.8
20260903032442 58 247 0.0 1.7 0.00 0.00 0.00 85 1059.2
20260903031943 58 247 1.7 3.5 0.00 0.00 0.00 85 1056.4
20260903031443 58 202 0.0 1.7 0.00 0.00 0.00 85 1008.8
20260903030943 58 157 0.0 1.7 0.00 0.00 0.00 85 1031.2
20260903030443 58 202 0.9 1.7 0.00 0.00 0.00 85 1062.7
20260903025943 59 337 0.0 0.0 0.00 0.00 0.00 85 1047.0
20260903025443 59 0 0.0 2.6 0.00 0.00 0.00 85 1048.2
20260903025142 59 292 0.0 2.6 0.00 0.00 0.00 85 1056.4
20260903024943 59 225 2.6 2.6 0.00 0.00 0.00 85 1031.2
20260903024443 58 202 1.7 1.7 0.00 0.00 0.00 85 1053.2
20260903024024 58 225 0.0 0.0 0.00 0.00 0.00 85 1042.9
20260903023943 58 225 0.0 0.0 0.00 0.00 0.00 85 1042.9
20260903023443 58 180 0.0 0.0 0.00 0.00 0.00 85 1050.1
20260903022943 58 247 0.0 1.7 0.00 0.00 0.00 85 1053.2
20260903022443 58 157 0.0 1.7 0.00 0.00 0.00 85 1004.0
20260903021943 58 202 0.0 0.0 0.00 0.00 0.00 85 1050.1
20260903021842 58 225 0.0 0.0 0.00 0.00 0.00 85 1046.9
20260903021443 58 202 0.0 0.0 0.00 0.00 0.00 85 1056.3
20260903020943 58 180 0.0 0.9 0.00 0.00 0.00 86 1043.8
20260903020443 58 202 0.9 1.7 0.00 0.00 0.00 86 1034.3
20260903015943 58 247 0.0 1.7 0.00 0.00 0.00 86 1059.5
20260903015443 58 270 0.0 0.9 0.00 0.00 0.00 86 1062.7
20260903014943 58 270 0.0 0.0 0.00 0.00 0.00 86 1050.1
20260903014542 58 315 0.0 0.0 0.00 0.00 0.00 86 1036.2
20260903014443 58 337 0.0 0.0 0.00 0.00 0.00 86 1064.5
20260903013943 58 135 0.0 0.0 0.00 0.00 0.00 86 1043.8